Time,TemperatureF,DewpointF,PressureIn,WindDirection,WindDirectionDegrees,WindSpeedMPH,WindSpeedGustMPH,Humidity,HourlyPrecipIn,Conditions,Clouds,dailyrainin,SoftwareType,DateUTC
2013-01-24 00:03:00,42.0,34.0,30.16,South,184,1.0,-999.0,73,-99.99,,,-99.99,,2013-01-24 05:03:00,
2013-01-24 00:12:00,42.0,34.0,30.16,South,184,1.0,-999.0,73,-99.99,,,-99.99,,2013-01-24 05:12:00,
2013-01-24 00:22:00,42.0,33.0,30.16,SSW,202,2.0,-999.0,71,-99.99,,,-99.99,,2013-01-24 05:22:00,
2013-01-24 00:33:00,42.0,33.0,30.15,SSW,206,2.0,-999.0,70,-99.99,,,-99.99,,2013-01-24 05:33:00,
2013-01-24 00:42:00,42.0,33.0,30.15,SSW,206,2.0,-999.0,70,-99.99,,,-99.99,,2013-01-24 05:42:00,
2013-01-24 00:53:00,42.0,33.0,30.15,SSW,210,1.0,-999.0,70,-99.99,,,-99.99,,2013-01-24 05:53:00,
2013-01-24 01:02:00,42.0,33.0,30.14,SSW,210,1.0,-999.0,70,-99.99,,,-99.99,,2013-01-24 06:02:00,
2013-01-24 01:12:00,42.0,33.0,30.14,SSW,210,1.0,-999.0,70,-99.99,,,-99.99,,2013-01-24 06:12:00,
2013-01-24 01:22:00,42.0,32.0,30.13,SSW,212,1.0,-999.0,67,-99.99,,,-99.99,,2013-01-24 06:22:00,
2013-01-24 01:32:00,43.0,32.0,30.12,SW,219,3.0,-999.0,65,-99.99,,,-99.99,,2013-01-24 06:32:00,
2013-01-24 01:42:00,43.0,32.0,30.12,SW,219,3.0,-999.0,65,-99.99,,,-99.99,,2013-01-24 06:42:00,
2013-01-24 01:52:00,43.0,32.0,30.12,SW,219,2.0,-999.0,64,-99.99,,,-99.99,,2013-01-24 06:52:00,
2013-01-24 02:03:00,44.0,32.0,30.12,SW,234,3.0,-999.0,62,-99.99,,,-99.99,,2013-01-24 07:03:00,
2013-01-24 02:12:00,44.0,32.0,30.12,SW,234,3.0,-999.0,62,-99.99,,,-99.99,,2013-01-24 07:12:00,
2013-01-24 02:23:00,45.0,33.0,30.11,SW,220,3.0,-999.0,62,-99.99,,,-99.99,,2013-01-24 07:23:00,
2013-01-24 02:33:00,46.0,34.0,30.10,SW,227,3.0,-999.0,62,-99.99,,,-99.99,,2013-01-24 07:33:00,
2013-01-24 02:43:00,46.0,34.0,30.10,SW,227,3.0,-999.0,62,-99.99,,,-99.99,,2013-01-24 07:43:00,
2013-01-24 02:53:00,46.0,34.0,30.09,SSW,213,4.0,-999.0,62,-99.99,,,-99.99,,2013-01-24 07:53:00,
2013-01-24 03:02:00,46.0,34.0,30.09,SSW,210,3.0,-999.0,62,-99.99,,,-99.99,,2013-01-24 08:02:00,
2013-01-24 03:12:00,46.0,34.0,30.09,SSW,210,3.0,-999.0,62,-99.99,,,-99.99,,2013-01-24 08:12:00,
2013-01-24 03:23:00,46.0,34.0,30.08,SW,230,3.0,-999.0,63,-99.99,,,-99.99,,2013-01-24 08:23:00,
2013-01-24 03:33:00,46.0,35.0,30.08,SSW,213,4.0,-999.0,64,-99.99,,,-99.99,,2013-01-24 08:33:00,
2013-01-24 03:43:00,46.0,35.0,30.08,SSW,213,4.0,-999.0,64,-99.99,,,-99.99,,2013-01-24 08:43:00,
2013-01-24 03:53:00,46.0,35.0,30.07,SW,227,5.0,-999.0,66,-99.99,,,-99.99,,2013-01-24 08:53:00,
2013-01-24 04:03:00,47.0,36.0,30.07,SSW,210,5.0,-999.0,66,-99.99,,,-99.99,,2013-01-24 09:03:00,
2013-01-24 04:13:00,47.0,36.0,30.07,SSW,210,5.0,-999.0,66,-99.99,,,-99.99,,2013-01-24 09:13:00,
2013-01-24 04:23:00,46.0,36.0,30.06,WSW,258,3.0,-999.0,68,-99.99,,,-99.99,,2013-01-24 09:23:00,
2013-01-24 04:33:00,46.0,36.0,30.06,WSW,258,3.0,-999.0,68,-99.99,,,-99.99,,2013-01-24 09:33:00,
2013-01-24 04:43:00,46.0,36.0,30.06,WSW,258,3.0,-999.0,68,-99.99,,,-99.99,,2013-01-24 09:43:00,
2013-01-24 04:53:00,46.0,36.0,30.05,SW,216,4.0,-999.0,69,-99.99,,,-99.99,,2013-01-24 09:53:00,
2013-01-24 05:03:00,45.0,36.0,30.04,SW,229,4.0,-999.0,70,-99.99,,,-99.99,,2013-01-24 10:03:00,
2013-01-24 05:12:00,45.0,36.0,30.04,SW,229,4.0,-999.0,70,-99.99,,,-99.99,,2013-01-24 10:12:00,
2013-01-24 05:23:00,45.0,36.0,30.04,WSW,240,2.0,-999.0,71,-99.99,,,-99.99,,2013-01-24 10:23:00,
2013-01-24 05:33:00,45.0,36.0,30.04,WSW,240,2.0,-999.0,71,-99.99,,,-99.99,,2013-01-24 10:33:00,
2013-01-24 05:43:00,45.0,36.0,30.04,WSW,240,2.0,-999.0,71,-99.99,,,-99.99,,2013-01-24 10:43:00,
2013-01-24 05:53:00,45.0,37.0,30.03,SW,219,4.0,-999.0,73,-99.99,,,-99.99,,2013-01-24 10:53:00,
2013-01-24 06:03:00,45.0,37.0,30.03,SW,219,4.0,-999.0,73,-99.99,,,-99.99,,2013-01-24 11:03:00,
2013-01-24 06:12:00,45.0,37.0,30.03,SW,219,4.0,-999.0,73,-99.99,,,-99.99,,2013-01-24 11:12:00,
2013-01-24 06:23:00,45.0,37.0,30.04,SW,216,4.0,-999.0,73,-99.99,,,-99.99,,2013-01-24 11:23:00,
2013-01-24 06:33:00,46.0,38.0,30.03,West,263,3.0,-999.0,73,-99.99,,,-99.99,,2013-01-24 11:33:00,
2013-01-24 06:43:00,46.0,38.0,30.03,West,263,3.0,-999.0,73,-99.99,,,-99.99,,2013-01-24 11:43:00,
2013-01-24 06:53:00,46.0,38.0,30.03,West,263,3.0,-999.0,73,-99.99,,,-99.99,,2013-01-24 11:53:00,
2013-01-24 07:03:00,45.0,38.0,30.04,WSW,253,2.0,-999.0,76,-99.99,,,-99.99,,2013-01-24 12:03:00,
2013-01-24 07:12:00,45.0,38.0,30.04,WSW,253,2.0,-999.0,76,-99.99,,,-99.99,,2013-01-24 12:12:00,
2013-01-24 07:23:00,45.0,38.0,30.05,West,263,3.0,-999.0,77,-99.99,,,-99.99,,2013-01-24 12:23:00,
2013-01-24 07:33:00,44.0,38.0,30.06,West,264,2.0,-999.0,78,-99.99,,,-99.99,,2013-01-24 12:33:00,
2013-01-24 07:43:00,44.0,38.0,30.06,West,264,2.0,-999.0,78,-99.99,,,-99.99,,2013-01-24 12:43:00,
2013-01-24 07:53:00,44.0,38.0,30.06,West,265,2.0,-999.0,79,-99.99,,,-99.99,,2013-01-24 12:53:00,
2013-01-24 08:03:00,44.0,38.0,30.06,West,264,1.0,-999.0,80,-99.99,,,-99.99,,2013-01-24 13:03:00,
2013-01-24 08:13:00,44.0,38.0,30.06,West,264,1.0,-999.0,80,-99.99,,,-99.99,,2013-01-24 13:13:00,
2013-01-24 08:23:00,44.0,39.0,30.07,West,264,2.0,-999.0,81,-99.99,,,-99.99,,2013-01-24 13:23:00,
2013-01-24 08:33:00,45.0,39.0,30.08,West,264,2.0,-999.0,79,-99.99,,,-99.99,,2013-01-24 13:33:00,
2013-01-24 08:43:00,45.0,39.0,30.08,West,264,2.0,-999.0,79,-99.99,,,-99.99,,2013-01-24 13:43:00,
2013-01-24 08:53:00,46.0,40.0,30.09,West,267,2.0,-999.0,78,-99.99,,,-99.99,,2013-01-24 13:53:00,
2013-01-24 09:03:00,47.0,40.0,30.09,West,267,3.0,-999.0,76,-99.99,,,-99.99,,2013-01-24 14:03:00,
2013-01-24 09:12:00,47.0,40.0,30.09,West,267,3.0,-999.0,76,-99.99,,,-99.99,,2013-01-24 14:12:00,
2013-01-24 09:23:00,48.0,40.0,30.09,West,263,4.0,-999.0,74,-99.99,,,-99.99,,2013-01-24 14:23:00,
2013-01-24 09:33:00,49.0,40.0,30.10,West,263,5.0,-999.0,72,-99.99,,,-99.99,,2013-01-24 14:33:00,
2013-01-24 09:43:00,49.0,40.0,30.10,West,263,5.0,-999.0,72,-99.99,,,-99.99,,2013-01-24 14:43:00,
2013-01-24 09:53:00,50.0,41.0,30.10,West,265,6.0,-999.0,70,-99.99,,,-99.99,,2013-01-24 14:53:00,
2013-01-24 10:04:00,51.0,41.0,30.11,WSW,250,4.0,-999.0,68,-99.99,,,-99.99,,2013-01-24 15:04:00,
2013-01-24 10:13:00,51.0,41.0,30.11,WSW,250,4.0,-999.0,68,-99.99,,,-99.99,,2013-01-24 15:13:00,
2013-01-24 10:23:00,52.0,41.0,30.11,West,271,4.0,-999.0,66,-99.99,,,-99.99,,2013-01-24 15:23:00,
2013-01-24 10:33:00,52.0,41.0,30.11,West,271,4.0,-999.0,66,-99.99,,,-99.99,,2013-01-24 15:33:00,
2013-01-24 10:43:00,52.0,41.0,30.11,West,271,4.0,-999.0,66,-99.99,,,-99.99,,2013-01-24 15:43:00,
2013-01-24 10:53:00,54.0,40.0,30.12,West,274,6.0,-999.0,60,-99.99,,,-99.99,,2013-01-24 15:53:00,
2013-01-24 11:04:00,55.0,40.0,30.13,NNW,337,6.0,-999.0,56,-99.99,,,-99.99,,2013-01-24 16:04:00,
2013-01-24 11:12:00,55.0,40.0,30.13,NNW,337,6.0,-999.0,56,-99.99,,,-99.99,,2013-01-24 16:12:00,
2013-01-24 11:23:00,56.0,40.0,30.14,WSW,256,3.0,-999.0,54,-99.99,,,-99.99,,2013-01-24 16:23:00,
2013-01-24 11:33:00,56.0,40.0,30.14,NW,311,4.0,-999.0,54,-99.99,,,-99.99,,2013-01-24 16:33:00,
2013-01-24 11:43:00,56.0,40.0,30.14,NW,311,4.0,-999.0,54,-99.99,,,-99.99,,2013-01-24 16:43:00,
2013-01-24 12:03:00,55.0,39.0,30.14,North,356,5.0,-999.0,55,-99.99,,,-99.99,,2013-01-24 17:03:00,
2013-01-24 12:12:00,55.0,39.0,30.14,North,356,5.0,-999.0,55,-99.99,,,-99.99,,2013-01-24 17:12:00,
2013-01-24 12:22:00,55.0,39.0,30.14,North,356,5.0,-999.0,55,-99.99,,,-99.99,,2013-01-24 17:22:00,
2013-01-24 12:32:00,51.0,36.0,30.17,North,7,7.0,-999.0,56,-99.99,,,-99.99,,2013-01-24 17:32:00,
2013-01-24 12:42:00,51.0,36.0,30.17,North,7,7.0,-999.0,56,-99.99,,,-99.99,,2013-01-24 17:42:00,
2013-01-24 12:52:00,51.0,36.0,30.17,North,7,7.0,-999.0,56,-99.99,,,-99.99,,2013-01-24 17:52:00,
2013-01-24 13:03:00,50.0,29.0,30.17,North,0,7.0,-999.0,45,-99.99,,,-99.99,,2013-01-24 18:03:00,
2013-01-24 13:13:00,50.0,29.0,30.18,North,357,7.0,-999.0,44,-99.99,,,-99.99,,2013-01-24 18:13:00,
2013-01-24 13:23:00,50.0,29.0,30.18,North,357,7.0,-999.0,44,-99.99,,,-99.99,,2013-01-24 18:23:00,
2013-01-24 13:33:00,49.0,27.0,30.18,NNE,17,6.0,-999.0,43,-99.99,,,-99.99,,2013-01-24 18:33:00,
2013-01-24 13:42:00,49.0,27.0,30.18,NNE,17,6.0,-999.0,43,-99.99,,,-99.99,,2013-01-24 18:42:00,
2013-01-24 13:53:00,48.0,26.0,30.20,NE,38,7.0,-999.0,42,-99.99,,,-99.99,,2013-01-24 18:53:00,
2013-01-24 14:02:00,49.0,26.0,30.21,ENE,62,7.0,-999.0,41,-99.99,,,-99.99,,2013-01-24 19:02:00,
2013-01-24 14:12:00,49.0,26.0,30.21,NNW,343,7.0,-999.0,40,-99.99,,,-99.99,,2013-01-24 19:12:00,
2013-01-24 14:22:00,49.0,26.0,30.21,NNW,343,7.0,-999.0,40,-99.99,,,-99.99,,2013-01-24 19:22:00,
2013-01-24 14:33:00,47.0,25.0,30.22,NE,40,5.0,-999.0,42,-99.99,,,-99.99,,2013-01-24 19:33:00,
2013-01-24 14:42:00,47.0,24.0,30.22,NE,49,6.0,-999.0,40,-99.99,,,-99.99,,2013-01-24 19:42:00,
2013-01-24 14:52:00,47.0,24.0,30.22,NE,49,6.0,-999.0,40,-99.99,,,-99.99,,2013-01-24 19:52:00,
2013-01-24 15:02:00,47.0,23.0,30.23,North,353,6.0,-999.0,39,-99.99,,,-99.99,,2013-01-24 20:02:00,
2013-01-24 15:12:00,47.0,23.0,30.24,North,0,6.0,-999.0,38,-99.99,,,-99.99,,2013-01-24 20:12:00,
2013-01-24 15:22:00,47.0,23.0,30.24,North,0,6.0,-999.0,38,-99.99,,,-99.99,,2013-01-24 20:22:00,
2013-01-24 15:33:00,47.0,23.0,30.24,North,7,5.0,-999.0,38,-99.99,,,-99.99,,2013-01-24 20:33:00,
2013-01-24 15:42:00,47.0,23.0,30.24,North,7,5.0,-999.0,38,-99.99,,,-99.99,,2013-01-24 20:42:00,
2013-01-24 15:52:00,47.0,23.0,30.24,North,7,5.0,-999.0,38,-99.99,,,-99.99,,2013-01-24 20:52:00,
2013-01-24 16:03:00,46.0,22.0,30.26,NE,47,5.0,-999.0,38,-99.99,,,-99.99,,2013-01-24 21:03:00,
2013-01-24 16:13:00,46.0,22.0,30.27,NE,54,3.0,-999.0,38,-99.99,,,-99.99,,2013-01-24 21:13:00,
2013-01-24 16:23:00,46.0,22.0,30.27,NE,54,3.0,-999.0,38,-99.99,,,-99.99,,2013-01-24 21:23:00,
2013-01-24 16:33:00,44.0,19.0,30.27,NE,37,7.0,-999.0,37,-99.99,,,-99.99,,2013-01-24 21:33:00,
2013-01-24 16:43:00,44.0,19.0,30.27,NE,37,7.0,-999.0,37,-99.99,,,-99.99,,2013-01-24 21:43:00,
2013-01-24 16:52:00,44.0,20.0,30.29,NNE,28,6.0,-999.0,38,-99.99,,,-99.99,,2013-01-24 21:52:00,
2013-01-24 17:03:00,43.0,19.0,30.30,NE,41,7.0,-999.0,37,-99.99,,,-99.99,,2013-01-24 22:03:00,
2013-01-24 17:12:00,43.0,19.0,30.30,NE,41,7.0,-999.0,37,-99.99,,,-99.99,,2013-01-24 22:12:00,
2013-01-24 17:22:00,43.0,19.0,30.32,North,0,6.0,-999.0,37,-99.99,,,-99.99,,2013-01-24 22:22:00,
2013-01-24 17:33:00,42.0,18.0,30.33,NE,40,3.0,-999.0,38,-99.99,,,-99.99,,2013-01-24 22:33:00,
2013-01-24 17:42:00,42.0,18.0,30.33,NE,40,3.0,-999.0,38,-99.99,,,-99.99,,2013-01-24 22:42:00,
2013-01-24 17:52:00,41.0,18.0,30.34,NE,44,7.0,-999.0,39,-99.99,,,-99.99,,2013-01-24 22:52:00,
2013-01-24 18:03:00,40.0,18.0,30.35,NE,47,6.0,-999.0,41,-99.99,,,-99.99,,2013-01-24 23:03:00,
2013-01-24 18:12:00,40.0,18.0,30.35,NE,47,6.0,-999.0,41,-99.99,,,-99.99,,2013-01-24 23:12:00,
2013-01-24 18:22:00,39.0,17.0,30.37,North,1,5.0,-999.0,40,-99.99,,,-99.99,,2013-01-24 23:22:00,
2013-01-24 18:32:00,39.0,16.0,30.38,NE,48,6.0,-999.0,39,-99.99,,,-99.99,,2013-01-24 23:32:00,
2013-01-24 18:42:00,39.0,16.0,30.38,NE,48,6.0,-999.0,39,-99.99,,,-99.99,,2013-01-24 23:42:00,
2013-01-24 18:52:00,38.0,14.0,30.39,NE,45,6.0,-999.0,37,-99.99,,,-99.99,,2013-01-24 23:52:00,
2013-01-24 19:02:00,38.0,14.0,30.40,North,11,8.0,-999.0,37,-99.99,,,-99.99,,2013-01-25 00:02:00,
2013-01-24 19:12:00,38.0,14.0,30.40,North,11,8.0,-999.0,37,-99.99,,,-99.99,,2013-01-25 00:12:00,
2013-01-24 19:22:00,37.0,17.0,30.41,NE,49,8.0,-999.0,43,-99.99,,,-99.99,,2013-01-25 00:22:00,
2013-01-24 19:32:00,35.0,15.0,30.42,NE,37,7.0,-999.0,44,-99.99,,,-99.99,,2013-01-25 00:32:00,
2013-01-24 19:42:00,35.0,15.0,30.42,NE,37,7.0,-999.0,44,-99.99,,,-99.99,,2013-01-25 00:42:00,
2013-01-24 19:52:00,34.0,14.0,30.44,NE,51,7.0,-999.0,44,-99.99,,,-99.99,,2013-01-25 00:52:00,
2013-01-24 20:02:00,34.0,15.0,30.45,ENE,61,4.0,-999.0,45,-99.99,,,-99.99,,2013-01-25 01:02:00,
2013-01-24 20:12:00,33.0,15.0,30.46,ENE,68,4.0,-999.0,46,-99.99,,,-99.99,,2013-01-25 01:12:00,
2013-01-24 20:22:00,33.0,15.0,30.46,ENE,68,4.0,-999.0,46,-99.99,,,-99.99,,2013-01-25 01:22:00,
2013-01-24 20:32:00,33.0,14.0,30.46,NE,48,7.0,-999.0,45,-99.99,,,-99.99,,2013-01-25 01:32:00,
2013-01-24 20:42:00,33.0,14.0,30.46,NE,48,7.0,-999.0,45,-99.99,,,-99.99,,2013-01-25 01:42:00,
2013-01-24 20:52:00,32.0,13.0,30.47,NE,41,5.0,-999.0,45,-99.99,,,-99.99,,2013-01-25 01:52:00,
2013-01-24 21:02:00,32.0,14.0,30.48,NE,49,5.0,-999.0,46,-99.99,,,-99.99,,2013-01-25 02:02:00,
2013-01-24 21:11:00,32.0,14.0,30.48,NE,49,5.0,-999.0,46,-99.99,,,-99.99,,2013-01-25 02:11:00,
2013-01-24 21:22:00,31.0,12.0,30.49,NE,48,4.0,-999.0,45,-99.99,,,-99.99,,2013-01-25 02:22:00,
2013-01-24 21:32:00,31.0,13.0,30.49,NE,51,2.0,-999.0,46,-99.99,,,-99.99,,2013-01-25 02:32:00,
2013-01-24 21:42:00,31.0,12.0,30.50,NE,40,4.0,-999.0,44,-99.99,,,-99.99,,2013-01-25 02:42:00,
2013-01-24 21:52:00,31.0,12.0,30.50,NE,40,4.0,-999.0,44,-99.99,,,-99.99,,2013-01-25 02:52:00,
2013-01-24 22:02:00,30.0,11.0,30.51,NE,45,2.0,-999.0,45,-99.99,,,-99.99,,2013-01-25 03:02:00,
2013-01-24 22:12:00,30.0,11.0,30.51,NE,45,2.0,-999.0,44,-99.99,,,-99.99,,2013-01-25 03:12:00,
2013-01-24 22:22:00,30.0,11.0,30.51,NE,45,2.0,-999.0,44,-99.99,,,-99.99,,2013-01-25 03:22:00,
2013-01-24 22:33:00,30.0,11.0,30.51,NE,48,1.0,-999.0,45,-99.99,,,-99.99,,2013-01-25 03:33:00,
2013-01-24 22:42:00,30.0,11.0,30.51,NE,48,1.0,-999.0,45,-99.99,,,-99.99,,2013-01-25 03:42:00,
2013-01-24 22:52:00,29.0,10.0,30.53,NE,49,2.0,-999.0,45,-99.99,,,-99.99,,2013-01-25 03:52:00,
2013-01-24 23:02:00,29.0,10.0,30.53,NE,51,1.0,-999.0,45,-99.99,,,-99.99,,2013-01-25 04:02:00,
2013-01-24 23:12:00,29.0,9.0,30.52,NE,51,2.0,-999.0,43,-99.99,,,-99.99,,2013-01-25 04:12:00,
2013-01-24 23:22:00,29.0,9.0,30.52,NE,51,2.0,-999.0,43,-99.99,,,-99.99,,2013-01-25 04:22:00,
2013-01-24 23:32:00,28.0,10.0,30.52,NE,49,1.0,-999.0,47,-99.99,,,-99.99,,2013-01-25 04:32:00,
2013-01-24 23:42:00,28.0,10.0,30.52,NE,49,1.0,-999.0,47,-99.99,,,-99.99,,2013-01-25 04:42:00,
2013-01-24 23:51:00,28.0,10.0,30.52,NE,49,2.0,-999.0,46,-99.99,,,-99.99,,2013-01-25 04:51:00,